Memphis, TN

11:05 PM CDT on July 24, 2017 (GMT -0500)
Memphis International

Weather History for KMEM - August, 2012

Change the Weather History Date:

Sunday, August 19, 2012

  Actual Average Record
Temperature  
Mean Temperature 78 °F 82 °F  
Max Temperature 89 °F 91 °F 100 °F (1980)
Min Temperature 67 °F 73 °F 57 °F (1943)
Degree Days  
Heating Degree Days 0 0  
Month to date heating degree days 0 0  
Since 1 June heating degree days 0 0  
Since 1 July heating degree days 0 0  
Cooling Degree Days 13 17  
Month to date cooling degree days 346 335  
Year to date cooling degree days 2027 1643  
Since 1 June cooling degree days 1447 1322  
Growing Degree Days 28 (Base 50)    
Moisture  
Dew Point 56 °F    
Average Humidity 52    
Maximum Humidity 78    
Minimum Humidity 26    
Precipitation  
Precipitation T in 0.08 in 4.02 in (1915)
Month to date precipitation 1.58 1.96  
Year to date precipitation 18.54 34.46  
Snow  
Snow 0.00 in 0.00 in - ()
Month to date snowfall 0.0 0.0  
Since 1 June snowfall 0.0 0.0  
Since 1 July snowfall 0.0 0.0  
Snow Depth 0.00 in    
Sea Level Pressure  
Sea Level Pressure 29.90 in    
Wind  
Wind Speed 6 mph (NNE)    
Max Wind Speed 15 mph    
Max Gust Speed 20 mph    
Visibility 10 miles    
Events      
T = Trace of Precipitation, MM = Missing Value Source: NWS Daily Summary

Daily Weather History Graph

Daily Weather History Graph

Search for Another Location

Airport or City:

Trip Planner

Search our weather history database for the weather conditions in past years. The results will help you decide how hot, cold, wet, or windy it might be!

Date:

Astronomy

Aug. 19, 2012 Rise Set
Actual Time 6:23 AM CDT 7:42 PM CDT
Civil Twilight 5:56 AM CDT 8:09 PM CDT
Nautical Twilight 5:25 AM CDT 8:41 PM CDT
Astronomical Twilight 4:51 AM CDT 9:13 PM CDT
Moon 8:29 AM CDT (8/19) 8:41 PM CDT (8/19)
Length of Visible Light 14h 12m
Length of Day
13h 19m
Waxing Crescent, 5% of the Moon is Illuminated
Aug 19
Waxing Crescent
Aug 24
First Quarter
Aug 31
Full
Sep 8
Last Quarter
Sep 15
New

Hourly Weather History & Observations

Time (CDT) Temp. Heat Index Dew Point Humidity Pressure Visibility Wind Dir Wind Speed Gust Speed Precip Events Conditions
12:54 AM 72.0 °F - 61.0 °F 68% 29.89 in 10.0 mi North 4.6 mph - N/A   Mostly Cloudy
1:54 AM 73.0 °F - 61.0 °F 66% 29.88 in 10.0 mi NNE 5.8 mph - N/A   Overcast
2:54 AM 72.0 °F - 61.0 °F 68% 29.88 in 10.0 mi NW 3.5 mph - N/A   Overcast
3:54 AM 70.0 °F - 62.1 °F 76% 29.87 in 10.0 mi North 5.8 mph - 0.00 in   Overcast
4:54 AM 69.1 °F - 62.1 °F 78% 29.88 in 10.0 mi North 3.5 mph - 0.00 in   Overcast
5:54 AM 68.0 °F - 60.1 °F 76% 29.89 in 10.0 mi Calm Calm - N/A   Mostly Cloudy
6:54 AM 68.0 °F - 60.1 °F 76% 29.91 in 10.0 mi Calm Calm - N/A   Partly Cloudy
7:54 AM 72.0 °F - 61.0 °F 68% 29.93 in 10.0 mi North 3.5 mph - N/A   Partly Cloudy
8:54 AM 77.0 °F - 57.0 °F 50% 29.92 in 10.0 mi NNE 6.9 mph - N/A   Partly Cloudy
9:54 AM 80.1 °F 80.1 °F 55.0 °F 42% 29.93 in 10.0 mi North 6.9 mph - N/A   Partly Cloudy
10:54 AM 82.0 °F 81.3 °F 54.0 °F 38% 29.93 in 10.0 mi North 8.1 mph - N/A   Partly Cloudy
11:54 AM 84.0 °F 82.5 °F 53.1 °F 34% 29.94 in 10.0 mi NNE 10.4 mph 16.1 mph N/A   Partly Cloudy
12:54 PM 86.0 °F - 51.1 °F 30% 29.92 in 10.0 mi NNE 9.2 mph 19.6 mph N/A   Partly Cloudy
1:54 PM 87.1 °F - 52.0 °F 30% 29.91 in 10.0 mi NNE 6.9 mph 18.4 mph N/A   Partly Cloudy
2:54 PM 87.1 °F - 51.1 °F 29% 29.90 in 10.0 mi East 8.1 mph - N/A   Scattered Clouds
3:54 PM 88.0 °F - 48.9 °F 26% 29.88 in 10.0 mi Variable 5.8 mph - N/A   Scattered Clouds
4:54 PM 88.0 °F - 48.9 °F 26% 29.87 in 10.0 mi North 5.8 mph - N/A   Scattered Clouds
5:54 PM 86.0 °F - 50.0 °F 29% 29.87 in 10.0 mi NNE 4.6 mph - N/A   Scattered Clouds
6:54 PM 84.9 °F - 51.1 °F 31% 29.88 in 10.0 mi NNE 8.1 mph - N/A   Scattered Clouds
7:54 PM 82.0 °F - 52.0 °F 35% 29.88 in 10.0 mi North 5.8 mph - N/A   Mostly Cloudy
8:54 PM 81.0 °F 80.4 °F 53.1 °F 38% 29.89 in 10.0 mi NNE 5.8 mph - N/A   Mostly Cloudy
9:54 PM 79.0 °F - 54.0 °F 42% 29.91 in 10.0 mi North 4.6 mph - N/A   Mostly Cloudy
10:54 PM 75.9 °F - 55.0 °F 48% 29.91 in 10.0 mi NNE 8.1 mph - N/A   Mostly Cloudy
11:54 PM 75.0 °F - 57.0 °F 53% 29.93 in 10.0 mi North 4.6 mph - N/A   Mostly Cloudy